Regional Weather Roundup
Issued by NWS

Home | Current Version | Previous Version | Graphics & Text | Print | Product List | Glossary On
Versions: 1 2 3 4 5 6 7 8 9 10 11 12 13 14 15 16 17 18 19 20 21 22 23 24 25 26 27 28 29 30 31 32 33 34 35 36 37 38 39 40 41 42 43 44 45 46 47 48 49 50
000
ASUS45 KABQ 011610
RWRNM
WEATHER ROUNDUP FOR NEW MEXICO
NATIONAL WEATHER SERVICE ALBUQUERQUE NM
1000 AM MDT WED APR 01 2015

NOTE: "FAIR" MEANS FEW OR NO CLOUDS BELOW 12,000 FEET AGL WITH NO
       SIGNIFICANT WEATHER OR OBSTRUCTIONS TO VISION.

      THIS PRODUCT IS RELEASED AS TWO VERSIONS.  ONE VERSION NEAR
      THE TOP OF THE HOUR CONTAINING PRELIMINARY DATA FROM ALBUQUERQUE
      AND OTHER STATIONS.  A FINAL VERSION WITH ADDITIONAL DATA IS
      ISSUED ABOUT 10 MINUTES AFTER THE HOUR.

NMZ501-503-504-510>518-011700-
NORTHWEST PLATEAU/NORTHCENTRAL MOUNTAINS

CITY           SKY/WX    TMP DP  RH WIND       PRES   REMARKS
FARMINGTON     SUNNY     62  29  28 CALM      29.97S
LOS ALAMOS     SUNNY     58  26  29 W7        30.07S
SANTA FE       SUNNY     58  25  28 VRB3      30.03S
TAOS           SUNNY     55  28  35 W8        30.05S
ANGEL FIRE     FAIR      44  26  48 E6G18     30.08S

$$
NMZ402-403-502-505>509-011700-
WESTCENTRAL MOUNTAINS/SOUTHWEST MOUNTAINS

CITY           SKY/WX    TMP DP  RH WIND       PRES   REMARKS
GALLUP         SUNNY     59  31  34 SW17      30.08R
GRANTS         SUNNY     60  30  31 W17G25    30.09S
SILVER CITY    SUNNY     64  34  32 NW17G25   30.10R

$$
NMZ407-409-411-412-011700-
SOUTHERN DESERTS

CITY           SKY/WX    TMP DP  RH WIND       PRES   REMARKS
LORDSBURG      FAIR      66  41  39 W8        30.06R
DEMING         SUNNY     65  42  43 VRB5      30.05R
LAS CRUCES     SUNNY     65  40  40 W6        30.05R
HOLLOMAN AFB   MOSUNNY   67  42  39 CALM      29.99R
ALAMOGORDO     SUNNY     64  39  39 SW3       30.00F
T OR C         SUNNY     63  38  39 S8        30.03R

$$
NMZ519>523-011700-
CENTRAL VALLEYS/CENTRAL HIGHLANDS

CITY           SKY/WX    TMP DP  RH WIND       PRES   REMARKS
ALBUQUERQUE    MOSUNNY   63  29  27 SW10      30.02S
DOUBLE EAGLE   MOSUNNY   64  30  27 SW8       30.03F
MORIARTY ARPT  FAIR      64  26  23 W16G22    30.05R
CLINES CORNERS SUNNY     59  27  29 W20G29    30.04S
BELEN          FAIR      66  29  24 N6        30.03S
SOCORRO        FAIR      63  38  40 S6        30.03S

$$
NMZ524>526-539-540-011700-
SOUTHCENTRAL MOUNTAINS

CITY           SKY/WX    TMP DP  RH WIND       PRES   REMARKS
RUIDOSO        SUNNY     61  28  29 NW20G28   30.11R

$$
NMZ527>531-011700-
NORTHEAST HIGHLANDS/NORTHEAST PLAINS

CITY           SKY/WX    TMP DP  RH WIND       PRES   REMARKS
LAS VEGAS      MOSUNNY   61  25  25 VRB6      30.01R
RATON          CLOUDY    50  25  37 CALM      29.95R
CLAYTON        SUNNY     75  26  16 W16G25    29.84S

$$
NMZ532>537-011700-
EASTCENTRAL PLAINS

CITY           SKY/WX    TMP DP  RH WIND       PRES   REMARKS
TUCUMCARI      SUNNY     71  30  21 W8        29.86R
CANNON AFB     SUNNY     71  36  28 NW13      29.89R
CLOVIS AIRPORT SUNNY     72  37  28 W12       29.88R

$$
NMZ028-029-538-011700-
SOUTHEAST PLAINS

CITY           SKY/WX    TMP DP  RH WIND       PRES   REMARKS
ROSWELL        SUNNY     69  38  32 CALM      29.92R
ARTESIA        SUNNY     73  37  27 VRB5      29.94R
CARLSBAD       SUNNY     73  44  35 S3        29.92R
HOBBS          SUNNY     72  41  33 SW13      29.94R


$$



USA.gov is the U.S. government's official web portal to all federal, state and local government web resources and services.